• In Hungary
  • List of Countries
  • For 7 days
  • Water Temperature
  • Satellite Maps
  • Weather Map
  • News
  • Weather Widgets
  • user-avatar
    Login

    Hourly Weather Tata

    Today, 20 August, Monday

    Time Temperature Precipitation Wind Pressure Humidity
    00:00 +25°C° 0 mm 1 mps 752 mmHg 48%
    01:00 +25°C° 0 mm 1 mps 751 mmHg 50%
    02:00 +24°C° 0 mm 1 mps 751 mmHg 52%
    03:00 +24°C° 0 mm 1 mps 751 mmHg 54%
    04:00 +23°C° 0 mm 1 mps 751 mmHg 56%
    05:00 +24°C° 0 mm 1 mps 751 mmHg 55%
    06:00 +25°C° 0 mm 1 mps 751 mmHg 53%
    07:00 +27°C° 0 mm 1 mps 751 mmHg 49%
    08:00 +29°C° 0 mm 1 mps 751 mmHg 44%
    09:00 +31°C° 0 mm 1 mps 751 mmHg 39%
    10:00 +33°C° 0 mm 1 mps 751 mmHg 34%
    11:00 +34°C° 0 mm 1 mps 751 mmHg 31%
    12:00 +35°C° 0 mm 1 mps 751 mmHg 28%
    13:00 +36°C° 0 mm 1 mps 751 mmHg 25%
    14:00 +35°C° 0 mm 1 mps 750 mmHg 26%
    15:00 +35°C° 0 mm 1 mps 750 mmHg 27%
    16:00 +34°C° 0 mm 1 mps 750 mmHg 28%
    17:00 +32°C° 0 mm 1 mps 750 mmHg 31%
    18:00 +31°C° 0 mm 1 mps 750 mmHg 34%
    19:00 +27°C° 0 mm 0 mps 749 mmHg 36%
    20:00 +28°C° 0 mm 1 mps 750 mmHg 38%
    21:00 +28°C° 0 mm 1 mps 750 mmHg 40%
    22:00 +27°C° 0 mm 1 mps 750 mmHg 42%
    23:00 +27°C° 0 mm 1 mps 750 mmHg 45%

    Tomorrow, 21 August, Tuesday

    Time Temperature Precipitation Wind Pressure Humidity
    00:00 +26°C° 0 mm 1 mps 750 mmHg 47%
    01:00 +26°C° 0 mm 1 mps 751 mmHg 49%
    02:00 +25°C° 0 mm 1 mps 751 mmHg 53%
    03:00 +24°C° 0 mm 2 mps 751 mmHg 56%
    04:00 +23°C° 0 mm 2 mps 751 mmHg 60%
    05:00 +24°C° 0 mm 2 mps 751 mmHg 59%
    06:00 +25°C° 0 mm 2 mps 751 mmHg 58%
    07:00 +26°C° 0 mm 3 mps 751 mmHg 57%
    08:00 +28°C° 0 mm 3 mps 751 mmHg 52%
    09:00 +30°C° 0 mm 3 mps 752 mmHg 46%
    10:00 +33°C° 0 mm 4 mps 752 mmHg 41%
    11:00 +34°C° 0 mm 4 mps 751 mmHg 39%
    12:00 +34°C° 0 mm 4 mps 751 mmHg 36%
    13:00 +35°C° 0 mm 4 mps 751 mmHg 33%
    14:00 +35°C° 0 mm 4 mps 751 mmHg 33%
    15:00 +35°C° 0 mm 4 mps 751 mmHg 34%
    16:00 +34°C° 0 mm 4 mps 750 mmHg 34%
    17:00 +31°C° 0 mm 3 mps 750 mmHg 39%
    18:00 +30°C° 0 mm 3 mps 751 mmHg 45%
    19:00 +28°C° 0 mm 3 mps 751 mmHg 50%
    20:00 +27°C° 0 mm 3 mps 751 mmHg 54%
    21:00 +26°C° 0 mm 3 mps 751 mmHg 59%
    22:00 +24°C° 0 mm 3 mps 752 mmHg 63%
    23:00 +24°C° 0 mm 2 mps 752 mmHg 66%

    Day after tomorrow, 22 August, Wednesday

    Time Temperature Precipitation Wind Pressure Humidity
    00:00 +23°C° 0 mm 2 mps 752 mmHg 69%
    01:00 +23°C° 0 mm 2 mps 752 mmHg 72%
    02:00 +21°C° 0 mm 2 mps 752 mmHg 73%
    03:00 +21°C° 0 mm 2 mps 752 mmHg 75%
    04:00 +20°C° 0 mm 2 mps 752 mmHg 76%
    05:00 +21°C° 0 mm 2 mps 752 mmHg 71%
    06:00 +23°C° 0 mm 2 mps 752 mmHg 66%
    07:00 +24°C° 0 mm 2 mps 753 mmHg 62%
    08:00 +26°C° 0 mm 2 mps 753 mmHg 55%
    09:00 +28°C° 0 mm 2 mps 753 mmHg 49%
    10:00 +30°C° 0 mm 2 mps 753 mmHg 43%
    11:00 +31°C° 0 mm 2 mps 752 mmHg 40%
    12:00 +33°C° 0 mm 1 mps 752 mmHg 37%
    13:00 +34°C° 0 mm 1 mps 752 mmHg 33%
    14:00 +34°C° 0 mm 1 mps 751 mmHg 33%
    15:00 +34°C° 0 mm 1 mps 751 mmHg 33%
    16:00 +34°C° 0 mm 1 mps 751 mmHg 32%
    17:00 +32°C° 0 mm 1 mps 751 mmHg 36%
    18:00 +30°C° 0 mm 1 mps 751 mmHg 40%
    19:00 +29°C° 0 mm 2 mps 750 mmHg 43%
    20:00 +28°C° 0 mm 2 mps 751 mmHg 46%
    21:00 +27°C° 0 mm 2 mps 751 mmHg 48%
    22:00 +26°C° 0 mm 2 mps 751 mmHg 50%
    23:00 +26°C° 0 mm 2 mps 751 mmHg 51%

    23 August, Thursday

    Time Temperature Precipitation Wind Pressure Humidity
    00:00 +25°C° 0 mm 2 mps 751 mmHg 52%
    01:00 +25°C° 0 mm 2 mps 751 mmHg 53%
    02:00 +24°C° 0 mm 2 mps 751 mmHg 54%
    03:00 +24°C° 0 mm 2 mps 751 mmHg 54%
    04:00 +23°C° 0 mm 2 mps 751 mmHg 55%
    05:00 +24°C° 0 mm 3 mps 751 mmHg 54%
    06:00 +25°C° 0 mm 3 mps 751 mmHg 53%
    07:00 +25°C° 0 mm 3 mps 751 mmHg 52%
    08:00 +27°C° 0 mm 3 mps 751 mmHg 48%
    09:00 +29°C° 0 mm 3 mps 751 mmHg 45%
    10:00 +31°C° 0 mm 3 mps 751 mmHg 41%
    11:00 +33°C° 0 mm 3 mps 750 mmHg 38%
    12:00 +34°C° 0 mm 3 mps 750 mmHg 35%
    13:00 +35°C° 0 mm 3 mps 749 mmHg 31%
    14:00 +35°C° 0 mm 2 mps 749 mmHg 32%
    15:00 +34°C° 0 mm 2 mps 749 mmHg 33%
    16:00 +34°C° 0 mm 2 mps 748 mmHg 34%
    17:00 +32°C° 0 mm 2 mps 748 mmHg 37%
    18:00 +30°C° 0 mm 2 mps 748 mmHg 40%
    19:00 +29°C° 0 mm 1 mps 748 mmHg 43%
    20:00 +29°C° 0 mm 2 mps 748 mmHg 43%
    21:00 +28°C° 0 mm 2 mps 748 mmHg 44%
    22:00 +28°C° 0 mm 2 mps 748 mmHg 45%
    23:00 +27°C° 0.2 mm 2 mps 748 mmHg 49%

    24 August, Friday

    Time Temperature Precipitation Wind Pressure Humidity
    00:00 +27°C° 0.2 mm 2 mps 748 mmHg 52%
    01:00 +26°C° 0.2 mm 3 mps 748 mmHg 55%
    02:00 +25°C° 0.2 mm 2 mps 748 mmHg 59%
    03:00 +25°C° 0.2 mm 2 mps 748 mmHg 63%
    04:00 +24°C° 0.2 mm 1 mps 748 mmHg 66%
    05:00 +25°C° 0.1 mm 2 mps 748 mmHg 65%
    06:00 +25°C° 0.1 mm 2 mps 748 mmHg 64%
    07:00 +26°C° 0.1 mm 2 mps 748 mmHg 62%
    08:00 +28°C° 0 mm 2 mps 748 mmHg 56%
    09:00 +29°C° 0 mm 3 mps 748 mmHg 50%
    10:00 +31°C° 0 mm 3 mps 748 mmHg 43%
    11:00 +33°C° 0 mm 3 mps 747 mmHg 39%
    12:00 +35°C° 0 mm 3 mps 747 mmHg 35%
    13:00 +36°C° 0 mm 3 mps 746 mmHg 31%
    14:00 +35°C° 0 mm 3 mps 746 mmHg 32%
    15:00 +34°C° 0 mm 2 mps 745 mmHg 34%
    16:00 +33°C° 0 mm 1 mps 745 mmHg 35%
    17:00 +31°C° 0.1 mm 1 mps 745 mmHg 39%
    18:00 +30°C° 0.1 mm 2 mps 745 mmHg 42%
    19:00 +29°C° 0.1 mm 2 mps 745 mmHg 45%
    20:00 +28°C° 0.2 mm 2 mps 745 mmHg 50%
    21:00 +26°C° 0.2 mm 2 mps 745 mmHg 55%
    22:00 +25°C° 0.2 mm 2 mps 745 mmHg 61%
    23:00 +25°C° 0.2 mm 3 mps 745 mmHg 66%

    25 August, Saturday

    Time Temperature Precipitation Wind Pressure Humidity
    00:00 +24°C° 0.2 mm 3 mps 745 mmHg 71%
    01:00 +22°C° 0.2 mm 3 mps 745 mmHg 76%
    02:00 +21°C° 0.3 mm 4 mps 745 mmHg 78%
    03:00 +21°C° 0.3 mm 5 mps 745 mmHg 81%
    04:00 +20°C° 0.3 mm 6 mps 745 mmHg 83%
    05:00 +20°C° 0.2 mm 6 mps 745 mmHg 82%
    06:00 +20°C° 0.2 mm 6 mps 746 mmHg 80%
    07:00 +21°C° 0.2 mm 6 mps 746 mmHg 78%
    08:00 +22°C° 0 mm 6 mps 746 mmHg 72%
    09:00 +23°C° 0 mm 7 mps 747 mmHg 66%
    10:00 +24°C° 0 mm 7 mps 747 mmHg 60%
    11:00 +24°C° 0.1 mm 7 mps 747 mmHg 59%
    12:00 +23°C° 0.1 mm 8 mps 747 mmHg 58%
    13:00 +22°C° 0.1 mm 8 mps 747 mmHg 58%
    14:00 +22°C° 0 mm 8 mps 747 mmHg 55%
    15:00 +22°C° 0 mm 7 mps 747 mmHg 53%
    16:00 +22°C° 0 mm 6 mps 747 mmHg 51%
    17:00 +21°C° 0 mm 6 mps 747 mmHg 54%
    18:00 +20°C° 0 mm 5 mps 747 mmHg 57%
    19:00 +19°C° 0 mm 4 mps 747 mmHg 60%
    20:00 +19°C° 0 mm 4 mps 748 mmHg 63%
    21:00 +18°C° 0 mm 3 mps 748 mmHg 66%
    22:00 +18°C° 0 mm 3 mps 748 mmHg 69%
    23:00 +17°C° 0.1 mm 2 mps 748 mmHg 72%
    Show more